User: anonymous   Login
Location: The Jewett Observatory
(46.7288°N, 117.1525°W)
Time: 19:23:23
(UTC-07:00)
Language:

Cosmos 1844 Rocket - Orbit

View from above orbital plane
View from above orbital plane
View from above satellite
View from above satellite

Ground track
Ground track

The orbit data is extracted from the following two-line orbital elements,

1 17974U 87041B   17146.59705443 +.00000108 +00000-0 +77302-4 0  9996
2 17974 071.0077 315.3310 0012028 063.0048 001.7702 14.17228389553423
Epoch (UTC): 26 May 2017 14:19:45
Eccentricity: 0.0012028
inclination: 71.0077°
perigee height: 826 km
apogee height: 843 km
right ascension of ascending node: 315.3310°
argument of perigee: 63.0048°
revolutions per day: 14.17228389
mean anomaly at epoch: 1.7702°
orbit number at epoch: 55342

The dashed part of the orbit path shows where the satellite is in the earth's shadow,  

DLR